KAP510 TJSJ-TNCM

Flight info

Callsign KAP510
Flight time N/A
Altitude 5000
Route JETSS1 JETSS Y290 SLUGO ULUBA1
Aircraft BN2P/L-SFG/C

Departure

Time 2026-05-04 19:48
Airport Luis Munoz Marin International Airport (TJSJ)

Arrival

Time N/A
Airport Princess Juliana International Airport (TNCM)
Time Latitude Longitude Altitude Speed Heading
2026-05-04 19:27 18.44115 -66.00315 14 ft 0 kts 158°
2026-05-04 19:29 18.44116 -66.00315 14 ft 0 kts 158°
2026-05-04 19:37 18.44116 -66.00316 14 ft 0 kts 158°
2026-05-04 19:43 18.44105 -66.00308 14 ft 7 kts 112°
2026-05-04 19:43 18.44123 -66.00235 14 ft 9 kts 77°
2026-05-04 19:43 18.44157 -66.00198 14 ft 6 kts 12°
2026-05-04 19:43 18.44186 -66.00217 14 ft 10 kts 297°
2026-05-04 19:44 18.44243 -66.00262 14 ft 14 kts 288°
2026-05-04 19:44 18.44203 -66.00383 14 ft 22 kts 248°
2026-05-04 19:44 18.44117 -66.00529 14 ft 23 kts 233°
2026-05-04 19:44 18.44057 -66.00666 14 ft 19 kts 244°
2026-05-04 19:45 18.44011 -66.00765 14 ft 10 kts 265°
2026-05-04 19:45 18.43992 -66.00819 14 ft 7 kts 245°
2026-05-04 19:45 18.43958 -66.00897 14 ft 15 kts 243°
2026-05-04 19:45 18.43921 -66.00991 14 ft 12 kts 250°
2026-05-04 19:46 18.43894 -66.01065 14 ft 9 kts 247°
2026-05-04 19:46 18.43859 -66.01151 14 ft 23 kts 248°
2026-05-04 19:46 18.43818 -66.01278 14 ft 15 kts 249°
2026-05-04 19:46 18.43823 -66.01362 14 ft 9 kts 340°
2026-05-04 19:47 18.43895 -66.01387 14 ft 20 kts 11°
2026-05-04 19:47 18.44053 -66.01049 14 ft 82 kts 67°
2026-05-04 19:47 18.44327 -66.00381 48 ft 110 kts 70°
2026-05-04 19:47 18.44650 -65.99595 146 ft 124 kts 73°
2026-05-04 19:48 18.45000 -65.98746 389 ft 132 kts 73°
2026-05-04 19:48 18.45384 -65.97866 534 ft 132 kts 69°
2026-05-04 19:48 18.45785 -65.97005 669 ft 128 kts 66°
2026-05-04 19:48 18.46174 -65.96198 845 ft 117 kts 68°
2026-05-04 19:49 18.46540 -65.95445 1060 ft 114 kts 69°
2026-05-04 19:49 18.46793 -65.94689 1269 ft 105 kts 95°
2026-05-04 19:49 18.46928 -65.93959 1523 ft 103 kts 79°
2026-05-04 19:49 18.47159 -65.93245 1767 ft 103 kts 79°
2026-05-04 19:50 18.47396 -65.92531 2003 ft 104 kts 77°
2026-05-04 19:50 18.47646 -65.91809 2205 ft 107 kts 78°
2026-05-04 19:50 18.47906 -65.91060 2374 ft 114 kts 76°
2026-05-04 19:50 18.48194 -65.90238 2552 ft 124 kts 78°
2026-05-04 19:51 18.48514 -65.89341 2718 ft 135 kts 76°
2026-05-04 19:51 18.48845 -65.88416 2875 ft 134 kts 75°
2026-05-04 19:51 18.49161 -65.87536 3115 ft 123 kts 76°
2026-05-04 19:51 18.49459 -65.86707 3338 ft 118 kts 75°
2026-05-04 19:52 18.49746 -65.85909 3561 ft 113 kts 75°
2026-05-04 19:52 18.50020 -65.85154 3781 ft 111 kts 76°
2026-05-04 19:52 18.50293 -65.84388 3976 ft 111 kts 76°
2026-05-04 19:52 18.50565 -65.83633 4169 ft 109 kts 77°
2026-05-04 19:53 18.50830 -65.82892 4360 ft 109 kts 77°
2026-05-04 19:53 18.51101 -65.82134 4570 ft 111 kts 77°
2026-05-04 19:53 18.51377 -65.81359 4778 ft 118 kts 77°
2026-05-04 19:53 18.51670 -65.80541 4972 ft 120 kts 76°
2026-05-04 19:54 18.51965 -65.79700 5032 ft 127 kts 77°
2026-05-04 19:54 18.52282 -65.78805 5040 ft 133 kts 76°
2026-05-04 19:54 18.52618 -65.77877 5048 ft 137 kts 75°
2026-05-04 19:54 18.52957 -65.76938 5042 ft 139 kts 75°
2026-05-04 19:55 18.53302 -65.75975 5038 ft 141 kts 76°
2026-05-04 19:55 18.53649 -65.75006 5041 ft 142 kts 76°
2026-05-04 19:55 18.53998 -65.74032 5044 ft 142 kts 76°
2026-05-04 19:55 18.54348 -65.73052 5044 ft 143 kts 76°
2026-05-04 19:56 18.54695 -65.72079 5043 ft 143 kts 76°
2026-05-04 19:56 18.55046 -65.71099 5047 ft 142 kts 76°
2026-05-04 19:56 18.55397 -65.70121 5048 ft 142 kts 75°
2026-05-04 19:56 18.55763 -65.69146 5014 ft 144 kts 73°
2026-05-04 19:57 18.56125 -65.68165 5003 ft 143 kts 74°
2026-05-04 19:57 18.56462 -65.67197 5010 ft 142 kts 76°
2026-05-04 19:57 18.56796 -65.66224 5014 ft 141 kts 75°
2026-05-04 19:57 18.57140 -65.65254 5001 ft 142 kts 74°
2026-05-04 19:58 18.57495 -65.64283 4995 ft 141 kts 74°
2026-05-04 19:58 18.57839 -65.63321 4994 ft 139 kts 75°
2026-05-04 19:58 18.58177 -65.62366 4998 ft 139 kts 75°
2026-05-04 19:58 18.58518 -65.61405 5002 ft 140 kts 75°
2026-05-04 19:59 18.58860 -65.60447 5005 ft 139 kts 75°
2026-05-04 19:59 18.59197 -65.59505 5007 ft 139 kts 75°
2026-05-04 19:59 18.59538 -65.58547 5003 ft 140 kts 75°
2026-05-04 19:59 18.59880 -65.57586 5001 ft 140 kts 74°
2026-05-04 20:00 18.60225 -65.56626 5002 ft 140 kts 75°
2026-05-04 20:00 18.60566 -65.55666 5009 ft 139 kts 75°
2026-05-04 20:00 18.60907 -65.54706 5001 ft 140 kts 75°
2026-05-04 20:00 18.61245 -65.53759 5005 ft 140 kts 75°
2026-05-04 20:01 18.61586 -65.52800 4989 ft 139 kts 74°
2026-05-04 20:01 18.61926 -65.51846 4999 ft 139 kts 74°
2026-05-04 20:01 18.62266 -65.50893 5002 ft 139 kts 74°
2026-05-04 20:01 18.62607 -65.49934 4999 ft 139 kts 75°
2026-05-04 20:02 18.62942 -65.48992 5000 ft 139 kts 74°
2026-05-04 20:02 18.63284 -65.48033 4993 ft 139 kts 74°
2026-05-04 20:02 18.63624 -65.47078 4999 ft 139 kts 75°
2026-05-04 20:02 18.63967 -65.46114 5000 ft 141 kts 75°
2026-05-04 20:03 18.64310 -65.45149 4993 ft 140 kts 75°
2026-05-04 20:03 18.64646 -65.44204 4996 ft 139 kts 74°
2026-05-04 20:03 18.64986 -65.43248 5003 ft 139 kts 74°
2026-05-04 20:03 18.65329 -65.42281 4997 ft 140 kts 74°
2026-05-04 20:04 18.65673 -65.41315 4997 ft 140 kts 74°
2026-05-04 20:04 18.66011 -65.40365 4999 ft 139 kts 74°
2026-05-04 20:04 18.66351 -65.39407 4996 ft 140 kts 74°
2026-05-04 20:04 18.66693 -65.38443 4996 ft 140 kts 74°
2026-05-04 20:05 18.67031 -65.37493 5000 ft 139 kts 74°
2026-05-04 20:05 18.67323 -65.36525 4987 ft 136 kts 87°
2026-05-04 20:05 18.67210 -65.35554 4997 ft 133 kts 105°
2026-05-04 20:05 18.67027 -65.34593 4998 ft 133 kts 103°
2026-05-04 20:06 18.66869 -65.33630 4997 ft 133 kts 103°
2026-05-04 20:06 18.66713 -65.32675 4995 ft 132 kts 102°
2026-05-04 20:06 18.66558 -65.31730 4994 ft 132 kts 102°
2026-05-04 20:06 18.66401 -65.30764 4995 ft 133 kts 102°
2026-05-04 20:07 18.66264 -65.29918 5004 ft 134 kts 102°
2026-05-04 20:07 18.66107 -65.28946 4997 ft 134 kts 103°
2026-05-04 20:07 18.65948 -65.27981 4996 ft 133 kts 102°
2026-05-04 20:07 18.65790 -65.27012 4992 ft 134 kts 102°
2026-05-04 20:08 18.65635 -65.26059 4989 ft 133 kts 103°
2026-05-04 20:08 18.65476 -65.25091 4993 ft 134 kts 102°
2026-05-04 20:08 18.65319 -65.24120 4991 ft 134 kts 102°
2026-05-04 20:08 18.65214 -65.23475 4988 ft 134 kts 102°
2026-05-04 20:09 18.65056 -65.22510 4999 ft 133 kts 102°
2026-05-04 20:09 18.64899 -65.21544 4990 ft 133 kts 102°
2026-05-04 20:09 18.64742 -65.20582 4991 ft 133 kts 102°
2026-05-04 20:09 18.64587 -65.19631 4988 ft 132 kts 102°
2026-05-04 20:10 18.64430 -65.18674 4988 ft 133 kts 102°
2026-05-04 20:10 18.64274 -65.17716 4989 ft 132 kts 102°
2026-05-04 20:10 18.64117 -65.16759 4986 ft 132 kts 101°
2026-05-04 20:10 18.63961 -65.15806 4987 ft 131 kts 101°
2026-05-04 20:11 18.63805 -65.14857 4993 ft 131 kts 101°
2026-05-04 20:11 18.63652 -65.13917 4989 ft 132 kts 102°
2026-05-04 20:11 18.63496 -65.12961 4998 ft 132 kts 102°
2026-05-04 20:11 18.63338 -65.12001 4991 ft 133 kts 102°
2026-05-04 20:12 18.63181 -65.11037 4990 ft 133 kts 101°
2026-05-04 20:12 18.63024 -65.10077 4990 ft 132 kts 102°
2026-05-04 20:12 18.62866 -65.09120 4990 ft 132 kts 101°
2026-05-04 20:12 18.62712 -65.08175 4989 ft 132 kts 101°
2026-05-04 20:13 18.62557 -65.07222 4990 ft 131 kts 102°
2026-05-04 20:13 18.62400 -65.06270 4992 ft 132 kts 101°
2026-05-04 20:13 18.62242 -65.05311 4986 ft 132 kts 101°
2026-05-04 20:13 18.62084 -65.04352 4988 ft 132 kts 101°
2026-05-04 20:14 18.61927 -65.03397 4986 ft 132 kts 102°
2026-05-04 20:14 18.61771 -65.02447 4991 ft 134 kts 102°
2026-05-04 20:14 18.61612 -65.01477 4988 ft 134 kts 102°
2026-05-04 20:14 18.61453 -65.00507 4988 ft 134 kts 102°
2026-05-04 20:15 18.61294 -64.99535 4987 ft 133 kts 102°
2026-05-04 20:15 18.61134 -64.98568 4987 ft 134 kts 102°
2026-05-04 20:15 18.60976 -64.97603 4985 ft 133 kts 102°
2026-05-04 20:15 18.60819 -64.96650 4981 ft 134 kts 102°
2026-05-04 20:16 18.60660 -64.95684 4982 ft 133 kts 102°
2026-05-04 20:16 18.60502 -64.94722 4983 ft 133 kts 102°
2026-05-04 20:16 18.60344 -64.93764 4982 ft 132 kts 102°
2026-05-04 20:16 18.60185 -64.92805 4983 ft 133 kts 102°
2026-05-04 20:17 18.60027 -64.91846 4982 ft 133 kts 102°
2026-05-04 20:17 18.59864 -64.90886 4989 ft 133 kts 102°
2026-05-04 20:17 18.59707 -64.89934 4990 ft 133 kts 102°
2026-05-04 20:17 18.59551 -64.88976 4989 ft 132 kts 101°
2026-05-04 20:18 18.59395 -64.88018 4991 ft 132 kts 102°
2026-05-04 20:18 18.59238 -64.87060 4987 ft 132 kts 102°
2026-05-04 20:18 18.59079 -64.86100 4992 ft 133 kts 102°
2026-05-04 20:18 18.58921 -64.85148 4996 ft 133 kts 102°
2026-05-04 20:19 18.58762 -64.84183 4994 ft 134 kts 102°
2026-05-04 20:19 18.58602 -64.83213 4990 ft 134 kts 102°
2026-05-04 20:19 18.58442 -64.82247 4991 ft 134 kts 102°
2026-05-04 20:19 18.58284 -64.81286 4990 ft 134 kts 102°
2026-05-04 20:20 18.58124 -64.80318 4991 ft 134 kts 102°
2026-05-04 20:20 18.57963 -64.79350 4989 ft 134 kts 102°
2026-05-04 20:20 18.57802 -64.78377 4985 ft 134 kts 102°
2026-05-04 20:20 18.57643 -64.77418 4984 ft 135 kts 102°
2026-05-04 20:21 18.57482 -64.76446 4986 ft 134 kts 102°
2026-05-04 20:21 18.57322 -64.75483 4986 ft 132 kts 102°
2026-05-04 20:21 18.57009 -64.73584 4982 ft 133 kts 103°
2026-05-04 20:22 18.56845 -64.72625 4989 ft 133 kts 102°
2026-05-04 20:22 18.56686 -64.71659 4987 ft 134 kts 102°
2026-05-04 20:22 18.56530 -64.70702 4986 ft 134 kts 102°
2026-05-04 20:22 18.56370 -64.69739 4989 ft 133 kts 102°
2026-05-04 20:23 18.56211 -64.68780 4987 ft 133 kts 102°
2026-05-04 20:23 18.56050 -64.67818 4986 ft 133 kts 102°
2026-05-04 20:23 18.55889 -64.66855 4987 ft 134 kts 102°
2026-05-04 20:23 18.55728 -64.65885 4990 ft 134 kts 101°
2026-05-04 20:24 18.55570 -64.64933 4991 ft 133 kts 102°
2026-05-04 20:24 18.55410 -64.63970 4993 ft 133 kts 102°
2026-05-04 20:24 18.55252 -64.63017 4989 ft 133 kts 102°
2026-05-04 20:24 18.55091 -64.62052 4987 ft 134 kts 102°
2026-05-04 20:25 18.54930 -64.61087 4988 ft 134 kts 102°
2026-05-04 20:25 18.54767 -64.60112 4993 ft 134 kts 102°
2026-05-04 20:25 18.54607 -64.59147 4993 ft 135 kts 102°
2026-05-04 20:25 18.54444 -64.58169 4994 ft 135 kts 102°
2026-05-04 20:26 18.54282 -64.57194 4988 ft 135 kts 102°
2026-05-04 20:26 18.54118 -64.56219 4990 ft 135 kts 102°
2026-05-04 20:26 18.53958 -64.55256 4988 ft 135 kts 102°
2026-05-04 20:26 18.53795 -64.54279 4992 ft 135 kts 102°
2026-05-04 20:27 18.53633 -64.53306 4991 ft 135 kts 102°
2026-05-04 20:27 18.53470 -64.52335 4991 ft 135 kts 102°
2026-05-04 20:27 18.53308 -64.51363 4987 ft 134 kts 102°
2026-05-04 20:27 18.53146 -64.50398 4996 ft 133 kts 101°
2026-05-04 20:28 18.52985 -64.49433 4990 ft 134 kts 102°
2026-05-04 20:28 18.52823 -64.48462 4991 ft 134 kts 102°
2026-05-04 20:28 18.52662 -64.47501 4985 ft 135 kts 102°
2026-05-04 20:28 18.52501 -64.46532 4992 ft 133 kts 102°
2026-05-04 20:29 18.52340 -64.45574 4987 ft 132 kts 101°
2026-05-04 20:29 18.52180 -64.44622 4990 ft 132 kts 102°
2026-05-04 20:29 18.52019 -64.43662 4989 ft 133 kts 102°
2026-05-04 20:29 18.51857 -64.42695 4990 ft 134 kts 102°
2026-05-04 20:30 18.51697 -64.41722 4988 ft 135 kts 102°
2026-05-04 20:30 18.51535 -64.40766 4985 ft 134 kts 102°
2026-05-04 20:30 18.51370 -64.39801 4986 ft 134 kts 102°
2026-05-04 20:30 18.51207 -64.38829 4985 ft 136 kts 102°
2026-05-04 20:31 18.51043 -64.37839 4989 ft 138 kts 101°
2026-05-04 20:31 18.50877 -64.36841 4993 ft 139 kts 102°
2026-05-04 20:31 18.50709 -64.35840 4993 ft 139 kts 102°
2026-05-04 20:31 18.50542 -64.34849 4993 ft 138 kts 102°
2026-05-04 20:32 18.50372 -64.33852 4987 ft 138 kts 102°
2026-05-04 20:32 18.50201 -64.32857 4980 ft 138 kts 102°
2026-05-04 20:32 18.50036 -64.31863 4991 ft 138 kts 102°
2026-05-04 20:32 18.49873 -64.30864 4994 ft 137 kts 102°
2026-05-04 20:33 18.49706 -64.29881 4992 ft 136 kts 103°
2026-05-04 20:33 18.49542 -64.28917 4988 ft 135 kts 102°
2026-05-04 20:33 18.49378 -64.27948 4991 ft 133 kts 102°
2026-05-04 20:33 18.49216 -64.26989 4995 ft 132 kts 102°
2026-05-04 20:34 18.49056 -64.26033 4989 ft 132 kts 102°
2026-05-04 20:34 18.48896 -64.25078 4986 ft 133 kts 101°
2026-05-04 20:34 18.48736 -64.24127 4989 ft 133 kts 101°
2026-05-04 20:34 18.48573 -64.23165 4990 ft 134 kts 102°
2026-05-04 20:35 18.48407 -64.22197 4988 ft 133 kts 102°
2026-05-04 20:35 18.48211 -64.21247 4978 ft 132 kts 112°
2026-05-04 20:35 18.47626 -64.20544 4993 ft 130 kts 141°
2026-05-04 20:35 18.46960 -64.19898 4999 ft 130 kts 131°
2026-05-04 20:36 18.46357 -64.19173 5002 ft 132 kts 129°
2026-05-04 20:36 18.45761 -64.18422 5003 ft 134 kts 129°
2026-05-04 20:36 18.45154 -64.17666 5005 ft 135 kts 129°
2026-05-04 20:36 18.44557 -64.16914 5007 ft 135 kts 129°
2026-05-04 20:37 18.43952 -64.16156 5007 ft 135 kts 129°
2026-05-04 20:37 18.43345 -64.15403 5008 ft 134 kts 129°
2026-05-04 20:37 18.42737 -64.14653 5007 ft 134 kts 129°
2026-05-04 20:37 18.42139 -64.13914 5003 ft 134 kts 129°
2026-05-04 20:38 18.41533 -64.13165 5002 ft 134 kts 129°
2026-05-04 20:38 18.40922 -64.12413 5006 ft 135 kts 129°
2026-05-04 20:38 18.40304 -64.11658 5008 ft 136 kts 129°
2026-05-04 20:38 18.39681 -64.10900 5011 ft 138 kts 129°
2026-05-04 20:39 18.39049 -64.10133 5005 ft 138 kts 129°
2026-05-04 20:39 18.38424 -64.09379 5003 ft 138 kts 129°
2026-05-04 20:39 18.37786 -64.08615 5003 ft 138 kts 129°
2026-05-04 20:39 18.37146 -64.07854 5001 ft 138 kts 129°
2026-05-04 20:40 18.36506 -64.07098 5005 ft 138 kts 129°
2026-05-04 20:40 18.35874 -64.06352 5006 ft 138 kts 130°
2026-05-04 20:40 18.35235 -64.05598 5002 ft 138 kts 130°
2026-05-04 20:40 18.34594 -64.04844 5001 ft 138 kts 130°
2026-05-04 20:41 18.33954 -64.04091 5002 ft 138 kts 129°
2026-05-04 20:41 18.33311 -64.03337 5000 ft 138 kts 130°
2026-05-04 20:41 18.32667 -64.02583 4998 ft 138 kts 130°
2026-05-04 20:41 18.32030 -64.01839 5000 ft 138 kts 130°
2026-05-04 20:42 18.31383 -64.01085 5001 ft 138 kts 130°
2026-05-04 20:42 18.30740 -64.00333 5006 ft 138 kts 130°
2026-05-04 20:42 18.30094 -63.99582 5004 ft 138 kts 130°
2026-05-04 20:42 18.29453 -63.98837 5007 ft 137 kts 130°
2026-05-04 20:43 18.28827 -63.98083 4997 ft 136 kts 126°
2026-05-04 20:43 18.28276 -63.97277 4996 ft 135 kts 124°
2026-05-04 20:43 18.27737 -63.96479 4994 ft 135 kts 124°
2026-05-04 20:43 18.27189 -63.95674 4996 ft 135 kts 124°
2026-05-04 20:44 18.26638 -63.94867 5000 ft 135 kts 124°
2026-05-04 20:44 18.26087 -63.94063 4999 ft 135 kts 124°
2026-05-04 20:44 18.25543 -63.93268 4992 ft 136 kts 124°
2026-05-04 20:44 18.24989 -63.92464 4994 ft 136 kts 124°
2026-05-04 20:45 18.24435 -63.91657 4996 ft 136 kts 124°
2026-05-04 20:45 18.23877 -63.90847 4998 ft 137 kts 124°
2026-05-04 20:45 18.23317 -63.90033 5001 ft 137 kts 124°
2026-05-04 20:45 18.22755 -63.89219 4998 ft 137 kts 124°
2026-05-04 20:46 18.22201 -63.88413 5000 ft 138 kts 124°
2026-05-04 20:46 18.21653 -63.87586 5002 ft 137 kts 123°
2026-05-04 20:46 18.21120 -63.86747 5000 ft 138 kts 122°
2026-05-04 20:46 18.20500 -63.85980 4999 ft 139 kts 137°
2026-05-04 20:47 18.19791 -63.85281 5004 ft 140 kts 128°
2026-05-04 20:47 18.19327 -63.84403 5012 ft 139 kts 111°
2026-05-04 20:47 18.19001 -63.83434 5005 ft 140 kts 109°
2026-05-04 20:47 18.18684 -63.82469 5006 ft 139 kts 109°
2026-05-04 20:48 18.18370 -63.81507 5004 ft 138 kts 109°
2026-05-04 20:48 18.18065 -63.80559 4999 ft 138 kts 109°
2026-05-04 20:48 18.17759 -63.79604 4993 ft 137 kts 109°
2026-05-04 20:48 18.17452 -63.78653 4997 ft 136 kts 109°
2026-05-04 20:49 18.17147 -63.77704 4992 ft 138 kts 109°
2026-05-04 20:49 18.16840 -63.76745 4995 ft 138 kts 109°
2026-05-04 20:49 18.16532 -63.75784 4996 ft 138 kts 109°
2026-05-04 20:49 18.16227 -63.74835 4997 ft 138 kts 109°
2026-05-04 20:50 18.15921 -63.73881 4994 ft 137 kts 109°
2026-05-04 20:50 18.15617 -63.72939 4991 ft 136 kts 109°
2026-05-04 20:50 18.15314 -63.72001 4988 ft 135 kts 109°
2026-05-04 20:50 18.15013 -63.71063 4999 ft 136 kts 109°
2026-05-04 20:51 18.14713 -63.70125 4995 ft 137 kts 109°
2026-05-04 20:51 18.14407 -63.69171 4996 ft 138 kts 109°
2026-05-04 20:51 18.14099 -63.68212 4998 ft 138 kts 109°
2026-05-04 20:51 18.13791 -63.67255 4996 ft 137 kts 109°
2026-05-04 20:52 18.13485 -63.66307 4998 ft 136 kts 109°
2026-05-04 20:52 18.13184 -63.65373 4995 ft 136 kts 109°
2026-05-04 20:52 18.12880 -63.64428 4998 ft 136 kts 108°
2026-05-04 20:52 18.12578 -63.63487 4996 ft 136 kts 108°
2026-05-04 20:53 18.12274 -63.62545 4995 ft 136 kts 108°
2026-05-04 20:53 18.11969 -63.61602 5001 ft 136 kts 108°
2026-05-04 20:53 18.11671 -63.60673 5004 ft 136 kts 108°
2026-05-04 20:53 18.11367 -63.59730 5003 ft 136 kts 109°
2026-05-04 20:54 18.11062 -63.58783 5004 ft 137 kts 109°
2026-05-04 20:54 18.10757 -63.57834 5004 ft 137 kts 109°
2026-05-04 20:54 18.10451 -63.56885 4996 ft 137 kts 109°
2026-05-04 20:54 18.10145 -63.55932 4998 ft 137 kts 109°
2026-05-04 20:55 18.09939 -63.55298 4994 ft 138 kts 108°
2026-05-04 20:55 18.09531 -63.54032 5001 ft 138 kts 108°
2026-05-04 20:55 18.09223 -63.53077 5001 ft 138 kts 109°
2026-05-04 20:55 18.08914 -63.52124 4998 ft 138 kts 109°
2026-05-04 20:56 18.08707 -63.51481 4950 ft 141 kts 109°
2026-05-04 20:56 18.08287 -63.50172 4824 ft 143 kts 108°
2026-05-04 20:56 18.07967 -63.49179 4729 ft 144 kts 109°
2026-05-04 20:56 18.07754 -63.48517 4664 ft 144 kts 109°
2026-05-04 20:57 18.07432 -63.47521 4558 ft 143 kts 109°
2026-05-04 20:57 18.07111 -63.46530 4462 ft 143 kts 109°
2026-05-04 20:57 18.06789 -63.45537 4357 ft 143 kts 109°
2026-05-04 20:57 18.06473 -63.44558 4273 ft 144 kts 109°
2026-05-04 20:58 18.06152 -63.43559 4167 ft 144 kts 109°
2026-05-04 20:58 18.05829 -63.42559 4069 ft 144 kts 109°
2026-05-04 20:58 18.05506 -63.41559 3975 ft 143 kts 110°
2026-05-04 20:58 18.05188 -63.40578 3875 ft 142 kts 109°